Aérodrome :
LOGIN :

S'inscrire | Disclaimer

   EN    FR    IT 

 










Légende :    VFR   VFR Marginal   IFR   IFR Intensif   IFR Très Intensif
Visi : 
Plafond : 
>= 8 km
>= 3000ft
5 à 8 km
1000 à 3000 ft
1500m à 5 km
500 à 1000 ft
800 à 1500m
200 à 500 ft
< 800m
< 200 ft
Symboles :   Orages  Brouillard  Fortes neiges  Fortes précipitations  Vent > 20 kt
SIGMETs :   Divers  Orages  Givrage  Turbulence  Onde Orograph.  Cendres Volcan.







- Altitude de l'aérodrome : 353 ft
- Code IATA : ZAG


LDZA - Zagreb Pleso

DERNIER METAR :
  • 111300Z 29004KT 250V340 CAVOK 07/01 Q1016 NOSIG

METARs EXPIRÉS :
  • 111230Z 27003KT 210V350 CAVOK 07/01 Q1016 NOSIG
  • 111200Z 27005KT 250V310 CAVOK 07/01 Q1017 NOSIG
  • 111130Z 25006KT 220V290 CAVOK 07/01 Q1016 NOSIG
  • 111100Z 23006KT CAVOK 07/01 Q1017 NOSIG
  • 111030Z 25005KT 210V290 CAVOK 05/02 Q1017 NOSIG

TAF COR TAF LDZA
Valide du 11 à 12h jusqu'au 12 à 12h UTC


111129Z 1112/1212 24006KT CAVOK TX08/1113Z TNM02/1204Z
ATIS : +385 1 6-259-214
Pas de NOTAMs connus pour ce terrain.



MET'MAP, la Météo Aéronautique d'un coup d'oeil ! - Copyright ORBIFLY Décembre 2007 - Disclaimer

ORBIFLY MET'MAP TEAM :

Programmation & Développement : Alexandra Zaïnal
Conception & Développement : Baudouin d'Aumeries
Co-Programmation & Développement : Marc-Olivier Méhu
Soutien technique & logistique : Manuel Goepfert

Contact : metmap@orbifly.com




SOURCES & CREDITS :

   NOAA